Home > Products > State Listing > Idaho Data
Latest:
 RWRID |
  [top]

000
ASUS45 KBOI 191910
RWRID
WEATHER ROUNDUP FOR IDAHO
NATIONAL WEATHER SERVICE BOISE ID
100 PM MDT SAT APR 19 2014

NOTE: "FAIR" INDICATES FEW OR NO CLOUDS BELOW 12000 FEET
WITH NO SIGNIFICANT WEATHER AND/OR OBSTRUCTIONS TO VISIBILITY

IDZ012-014-192000-
SOUTHWEST IDAHO


CITY           SKY/WX    TMP DP  RH WIND       PRES   REMARKS
BOISE          SUNNY     67  25  20 SE12      29.93F
CALDWELL       SUNNY     66  28  24 SE9G16    29.94F
MOUNTAIN HOME  SUNNY     68  25  19 E17       29.93F
$$

IDZ016-017-192000-
SOUTHCENTRAL IDAHO


CITY           SKY/WX    TMP DP  RH WIND       PRES   REMARKS
BURLEY         SUNNY     64  32  30 E3        29.98F
JEROME         SUNNY     63  25  23 VRB3      29.99F
TWIN FALLS     SUNNY     66  32  28 NE5       29.98F
$$

IDZ019>023-192000-
SOUTHEAST IDAHO


CITY           SKY/WX    TMP DP  RH WIND       PRES   REMARKS
IDAHO FALLS    SUNNY     60  12  15 SW10      30.03F
POCATELLO      MOSUNNY   62  14  15 CALM      30.02F
REXBURG        SUNNY     57  16  20 VRB5      30.03F
$$

IDZ006-010-011-018-031-032-192000-
CENTRAL IDAHO MOUNTAINS


CITY           SKY/WX    TMP DP  RH WIND       PRES   REMARKS
MCCALL         MOSUNNY   56  23  27 S13       29.95F
HAILEY         MOSUNNY   59  19  21 SE12      30.02F
STANLEY          N/A     44  15  31 N3        30.02F
SALMON         SUNNY     54  18  24 N3        29.96F
CHALLIS        SUNNY     57  13  17 VRB5      29.96F
$$

IDZ002-004-006-007-026-192000-
NORTHERN IDAHO


CITY           SKY/WX    TMP DP  RH WIND       PRES   REMARKS
LEWISTON       PTSUNNY   61  30  31 VRB6      29.85F
LOWELL           N/A     60  31  33 N3        29.89F
COEUR D`ALENE  PTSUNNY   54  34  47 N5        29.87F
MULLAN PASS    MOSUNNY   42  24  49 VRB5      29.89F
$$




000
ASUS45 KBOI 191810
RWRID
WEATHER ROUNDUP FOR IDAHO
NATIONAL WEATHER SERVICE BOISE ID
1200 PM MDT SAT APR 19 2014

NOTE: "FAIR" INDICATES FEW OR NO CLOUDS BELOW 12000 FEET
WITH NO SIGNIFICANT WEATHER AND/OR OBSTRUCTIONS TO VISIBILITY

IDZ012-014-191900-
SOUTHWEST IDAHO


CITY           SKY/WX    TMP DP  RH WIND       PRES   REMARKS
BOISE          SUNNY     64  22  20 SE14      29.95F
CALDWELL       SUNNY     61  32  33 CALM      29.96F
MOUNTAIN HOME  SUNNY     63  22  21 E21       29.96F
$$

IDZ016-017-191900-
SOUTHCENTRAL IDAHO


CITY           SKY/WX    TMP DP  RH WIND       PRES   REMARKS
BURLEY         SUNNY     61  27  27 CALM      30.00S
JEROME         SUNNY     61  26  26 E10       30.01S
TWIN FALLS     SUNNY     63  30  28 NE7       30.00S
$$

IDZ019>023-191900-
SOUTHEAST IDAHO


CITY           SKY/WX    TMP DP  RH WIND       PRES   REMARKS
IDAHO FALLS    SUNNY     58  14  17 S12       30.05S
POCATELLO      SUNNY     58   7  13 VRB3      30.04F
REXBURG        SUNNY     55  16  21 SW12      30.05S
$$

IDZ006-010-011-018-031-032-191900-
CENTRAL IDAHO MOUNTAINS


CITY           SKY/WX    TMP DP  RH WIND       PRES   REMARKS
MCCALL         SUNNY     51  20  29 S10       29.96F
HAILEY         MOSUNNY   57  14  18 E7        30.04F
STANLEY          N/A     41  14  33 CALM      30.04F
SALMON         SUNNY     46  16  29 N6        30.00F
CHALLIS        SUNNY     51  14  22 CALM      30.00F
$$

IDZ002-004-006-007-026-191900-
NORTHERN IDAHO


CITY           SKY/WX    TMP DP  RH WIND       PRES   REMARKS
LEWISTON       PTSUNNY   55  30  38 NE8       29.88F
LOWELL           N/A     57  30  35 N5        29.93F
COEUR D`ALENE  MOSUNNY   50  34  53 N6        29.89F
MULLAN PASS    SUNNY     38  26  62 VRB5      29.90S WCI  34
$$




000
ASUS45 KBOI 191710
RWRID
WEATHER ROUNDUP FOR IDAHO
NATIONAL WEATHER SERVICE BOISE ID
1100 AM MDT SAT APR 19 2014

NOTE: "FAIR" INDICATES FEW OR NO CLOUDS BELOW 12000 FEET
WITH NO SIGNIFICANT WEATHER AND/OR OBSTRUCTIONS TO VISIBILITY

IDZ012-014-191800-
SOUTHWEST IDAHO


CITY           SKY/WX    TMP DP  RH WIND       PRES   REMARKS
BOISE          SUNNY     59  25  27 SE10      29.96F
CALDWELL       SUNNY     55  28  35 S6        29.98F
MOUNTAIN HOME  SUNNY     59  25  27 E18       29.97F
$$

IDZ016-017-191800-
SOUTHCENTRAL IDAHO


CITY           SKY/WX    TMP DP  RH WIND       PRES   REMARKS
BURLEY         SUNNY     56  29  35 VRB5      30.00S
JEROME         SUNNY     57  26  30 E10       30.01S
TWIN FALLS     SUNNY     59  26  28 NE9       30.00S
$$

IDZ019>023-191800-
SOUTHEAST IDAHO


CITY           SKY/WX    TMP DP  RH WIND       PRES   REMARKS
IDAHO FALLS    SUNNY     53  21  28 S9        30.05S
POCATELLO      SUNNY     55  17  22 E3        30.05S
REXBURG        SUNNY     51  18  27 S5        30.05S
$$

IDZ006-010-011-018-031-032-191800-
CENTRAL IDAHO MOUNTAINS


CITY           SKY/WX    TMP DP  RH WIND       PRES   REMARKS
MCCALL         SUNNY     44  21  40 S5        29.97F
HAILEY         MOSUNNY   52   9  17 E6        30.05S
STANLEY          N/A     34  17  50 N3        30.05F
SALMON         SUNNY     43  18  36 NE3       30.02F
CHALLIS        SUNNY     48  14  25 VRB5      30.02F
$$

IDZ002-004-006-007-026-191800-
NORTHERN IDAHO


CITY           SKY/WX    TMP DP  RH WIND       PRES   REMARKS
LEWISTON       MOSUNNY   51  29  42 E9        29.89F
LOWELL           N/A     48  31  51 N5        29.98F
COEUR D`ALENE  MOSUNNY   46  34  61 NE7       29.91F
MULLAN PASS    SUNNY     34  23  64 VRB3      29.90S
$$




000
ASUS45 KBOI 191610
RWRID
WEATHER ROUNDUP FOR IDAHO
NATIONAL WEATHER SERVICE BOISE ID
1000 AM MDT SAT APR 19 2014

NOTE: "FAIR" INDICATES FEW OR NO CLOUDS BELOW 12000 FEET
WITH NO SIGNIFICANT WEATHER AND/OR OBSTRUCTIONS TO VISIBILITY

IDZ012-014-191700-
SOUTHWEST IDAHO


CITY           SKY/WX    TMP DP  RH WIND       PRES   REMARKS
BOISE          SUNNY     55  24  30 SE12      29.97S
CALDWELL       SUNNY     48  28  46 S6        30.00S
MOUNTAIN HOME  SUNNY     54  28  36 E15       29.98S
$$

IDZ016-017-191700-
SOUTHCENTRAL IDAHO


CITY           SKY/WX    TMP DP  RH WIND       PRES   REMARKS
BURLEY         SUNNY     49  31  49 E6        30.00F
JEROME         SUNNY     52  28  39 NE12      30.01S
TWIN FALLS     SUNNY     55  23  28 NE8       30.00S
$$

IDZ019>023-191700-
SOUTHEAST IDAHO


CITY           SKY/WX    TMP DP  RH WIND       PRES   REMARKS
IDAHO FALLS    MOSUNNY   48  23  37 S7        30.05S
POCATELLO      SUNNY     51  20  29 CALM      30.05R
REXBURG        SUNNY     47  22  37 SW7       30.05S
$$

IDZ006-010-011-018-031-032-191700-
CENTRAL IDAHO MOUNTAINS


CITY           SKY/WX    TMP DP  RH WIND       PRES   REMARKS
MCCALL         SUNNY     38  21  50 CALM      29.98S
HAILEY         MOSUNNY   46  12  25 NW9       30.05S
STANLEY          N/A     29  17  61 CALM      30.06F
SALMON         SUNNY     37  18  44 CALM      30.05S
CHALLIS        SUNNY     42  14  32 CALM      30.03F
$$

IDZ002-004-006-007-026-191700-
NORTHERN IDAHO


CITY           SKY/WX    TMP DP  RH WIND       PRES   REMARKS
LEWISTON       MOSUNNY   46  28  49 NE10      29.91F
LOWELL           N/A     41  32  70 N5        30.02F
COEUR D`ALENE  SUNNY     43  32  65 NE9       29.93F
MULLAN PASS    SUNNY     32  22  66 VRB6      29.90S WCI  26
$$




000
ASUS45 KBOI 191510
RWRID
WEATHER ROUNDUP FOR IDAHO
NATIONAL WEATHER SERVICE BOISE ID
900 AM MDT SAT APR 19 2014

NOTE: "FAIR" INDICATES FEW OR NO CLOUDS BELOW 12000 FEET
WITH NO SIGNIFICANT WEATHER AND/OR OBSTRUCTIONS TO VISIBILITY

IDZ012-014-191600-
SOUTHWEST IDAHO


CITY           SKY/WX    TMP DP  RH WIND       PRES   REMARKS
BOISE          SUNNY     50  24  36 SE8       29.97R
CALDWELL       SUNNY     45  27  49 S6        30.00R
MOUNTAIN HOME  SUNNY     49  28  44 E13       29.98S
$$

IDZ016-017-191600-
SOUTHCENTRAL IDAHO


CITY           SKY/WX    TMP DP  RH WIND       PRES   REMARKS
BURLEY         SUNNY     41  32  70 CALM      30.01S
JEROME         SUNNY     49  24  37 NE12      30.01S
TWIN FALLS     SUNNY     52  30  43 E7        30.00S
$$

IDZ019>023-191600-
SOUTHEAST IDAHO


CITY           SKY/WX    TMP DP  RH WIND       PRES   REMARKS
IDAHO FALLS    PTSUNNY   42  26  53 SW8       30.05R
POCATELLO      SUNNY     46  20  35 NE3       30.04S
REXBURG        MOSUNNY   39  26  59 CALM      30.05R
$$

IDZ006-010-011-018-031-032-191600-
CENTRAL IDAHO MOUNTAINS


CITY           SKY/WX    TMP DP  RH WIND       PRES   REMARKS
MCCALL         SUNNY     33  21  61 CALM      29.98S
HAILEY         MOSUNNY   41  16  36 NW14      30.05R
STANLEY          N/A     24  18  77 CALM      30.07S
SALMON         SUNNY     32  19  59 CALM      30.06S
CHALLIS        SUNNY     37  13  37 CALM      30.04F
$$

IDZ002-004-006-007-026-191600-
NORTHERN IDAHO


CITY           SKY/WX    TMP DP  RH WIND       PRES   REMARKS
LEWISTON       SUNNY     43  29  57 NE13      29.93F
LOWELL           N/A     35  31  85 N6        30.05F WCI  30
COEUR D`ALENE  SUNNY     37  32  81 NE6       29.94F WCI  33
MULLAN PASS    SUNNY     29  20  69 S8        29.90S WCI  21
$$




000
ASUS45 KBOI 191410
RWRID
WEATHER ROUNDUP FOR IDAHO
NATIONAL WEATHER SERVICE BOISE ID
800 AM MDT SAT APR 19 2014

NOTE: "FAIR" INDICATES FEW OR NO CLOUDS BELOW 12000 FEET
WITH NO SIGNIFICANT WEATHER AND/OR OBSTRUCTIONS TO VISIBILITY

IDZ012-014-191500-
SOUTHWEST IDAHO


CITY           SKY/WX    TMP DP  RH WIND       PRES   REMARKS
BOISE          SUNNY     45  24  43 SE8       29.96R
CALDWELL       SUNNY     37  25  60 E6        29.99S WCI  33
MOUNTAIN HOME  SUNNY     39  28  63 E9        29.98R WCI  33
$$

IDZ016-017-191500-
SOUTHCENTRAL IDAHO


CITY           SKY/WX    TMP DP  RH WIND       PRES   REMARKS
BURLEY         SUNNY     33  30  88 CALM      30.01R
JEROME         MOSUNNY   41  23  48 NE13      30.01R
TWIN FALLS     MOSUNNY   44  27  51 CALM      30.00R
$$

IDZ019>023-191500-
SOUTHEAST IDAHO


CITY           SKY/WX    TMP DP  RH WIND       PRES   REMARKS
IDAHO FALLS    CLOUDY    37  25  61 S5        30.04R WCI  33
POCATELLO      SUNNY     34  23  64 CALM      30.04R
REXBURG        SUNNY     32  24  72 NE3       30.04R
$$

IDZ006-010-011-018-031-032-191500-
CENTRAL IDAHO MOUNTAINS


CITY           SKY/WX    TMP DP  RH WIND       PRES   REMARKS
MCCALL         SUNNY     26  19  74 E3        29.98S
HAILEY         MOSUNNY   36  18  48 NW10      30.04R WCI  28
STANLEY          N/A     19  15  84 CALM      30.07R
SALMON         SUNNY     27  19  74 CALM      30.06R
CHALLIS        SUNNY     29  32 100 CALM      30.05R
$$

IDZ002-004-006-007-026-191500-
NORTHERN IDAHO


CITY           SKY/WX    TMP DP  RH WIND       PRES   REMARKS
LEWISTON       SUNNY     39  28  64 E8        29.95S WCI  33
LOWELL           N/A     32  30  92 VRB6      30.07S WCI  26
COEUR D`ALENE  SUNNY     30  27  86 CALM      29.96S
MULLAN PASS    SUNNY     26  20  77 S8        29.90S WCI  18
$$




000
ASUS45 KBOI 191310
RWRID
WEATHER ROUNDUP FOR IDAHO
NATIONAL WEATHER SERVICE BOISE ID
700 AM MDT SAT APR 19 2014

NOTE: "FAIR" INDICATES FEW OR NO CLOUDS BELOW 12000 FEET
WITH NO SIGNIFICANT WEATHER AND/OR OBSTRUCTIONS TO VISIBILITY

IDZ012-014-191400-
SOUTHWEST IDAHO


CITY           SKY/WX    TMP DP  RH WIND       PRES   REMARKS
BOISE          PTCLDY    43  23  45 SE10      29.95S
CALDWELL       PTCLDY    37  21  52 E6        29.98S WCI  33
MOUNTAIN HOME  PTCLDY    37  26  64 E7        29.97S WCI  31
$$

IDZ016-017-191400-
SOUTHCENTRAL IDAHO


CITY           SKY/WX    TMP DP  RH WIND       PRES   REMARKS
BURLEY         PTCLDY    31  28  89 CALM      30.00R
JEROME         PTCLDY    36  26  67 NE12      29.99S WCI  28
TWIN FALLS     PTCLDY    39  24  55 S10       29.98S WCI  32
$$

IDZ019>023-191400-
SOUTHEAST IDAHO


CITY           SKY/WX    TMP DP  RH WIND       PRES   REMARKS
IDAHO FALLS    MOCLDY    31  23  72 NW3       30.03R
POCATELLO      CLEAR     27  20  75 CALM      30.03R
REXBURG        PTCLDY    30  23  75 N5        30.03R WCI  25
$$

IDZ006-010-011-018-031-032-191400-
CENTRAL IDAHO MOUNTAINS


CITY           SKY/WX    TMP DP  RH WIND       PRES   REMARKS
MCCALL         CLEAR     24  19  81 CALM      29.98F
HAILEY         PTCLDY    36  18  48 NW14      30.03S WCI  27
STANLEY          N/A     17  13  84 CALM      30.06R
SALMON         CLEAR     25  18  74 CALM      30.05R
CHALLIS        CLEAR     29  32 100 CALM      30.04R
$$

IDZ002-004-006-007-026-191400-
NORTHERN IDAHO


CITY           SKY/WX    TMP DP  RH WIND       PRES   REMARKS
LEWISTON       CLEAR     38  28  67 E8        29.95F WCI  32
LOWELL           N/A     32  30  92 VRB3      30.07S
COEUR D`ALENE  CLEAR     28  25  86 NE6       29.96F WCI  22
MULLAN PASS    CLEAR     25  18  74 S8        29.90F WCI  16
$$




000
ASUS45 KBOI 191210
RWRID
WEATHER ROUNDUP FOR IDAHO
NATIONAL WEATHER SERVICE BOISE ID
600 AM MDT SAT APR 19 2014

NOTE: "FAIR" INDICATES FEW OR NO CLOUDS BELOW 12000 FEET
WITH NO SIGNIFICANT WEATHER AND/OR OBSTRUCTIONS TO VISIBILITY

IDZ012-014-191300-
SOUTHWEST IDAHO


CITY           SKY/WX    TMP DP  RH WIND       PRES   REMARKS
BOISE          PTCLDY    44  23  43 SE12      29.95S
CALDWELL       PTCLDY    37  25  60 E5        29.98S WCI  34
MOUNTAIN HOME  PTCLDY    38  26  61 E8        29.97S WCI  32
$$

IDZ016-017-191300-
SOUTHCENTRAL IDAHO


CITY           SKY/WX    TMP DP  RH WIND       PRES   REMARKS
BURLEY         PTCLDY    32  28  85 E3        29.99F
JEROME         CLEAR     36  25  64 E3        29.99S
TWIN FALLS     CLEAR     36  24  62 S6        29.98F WCI  31
$$

IDZ019>023-191300-
SOUTHEAST IDAHO


CITY           SKY/WX    TMP DP  RH WIND       PRES   REMARKS
IDAHO FALLS    PTCLDY    37  25  61 SE5       30.01S WCI  33
POCATELLO      CLEAR     31  22  69 CALM      30.02S
REXBURG        CLEAR     35  21  56 SW3       30.01R
$$

IDZ006-010-011-018-031-032-191300-
CENTRAL IDAHO MOUNTAINS


CITY           SKY/WX    TMP DP  RH WIND       PRES   REMARKS
MCCALL         CLEAR     26  18  71 CALM      29.99R
HAILEY         MOCLDY    36  18  48 NW9       30.03S WCI  29
STANLEY          N/A     18  14  84 S3        30.05F
SALMON         PTCLDY    25  18  74 CALM      30.04F
CHALLIS        PTCLDY    32  32 100 NW3       30.03S
$$

IDZ002-004-006-007-026-191300-
NORTHERN IDAHO


CITY           SKY/WX    TMP DP  RH WIND       PRES   REMARKS
LEWISTON       CLEAR     39  28  64 E9        29.96S WCI  33
LOWELL           N/A     32  30  92 NW5       30.07S WCI  27
COEUR D`ALENE  CLEAR     30  27  86 E5        29.97S WCI  25
MULLAN PASS    CLEAR     24  19  81 S9        29.91F WCI  14
$$




000
ASUS45 KBOI 191110
RWRID
WEATHER ROUNDUP FOR IDAHO
NATIONAL WEATHER SERVICE BOISE ID
500 AM MDT SAT APR 19 2014

NOTE: "FAIR" INDICATES FEW OR NO CLOUDS BELOW 12000 FEET
WITH NO SIGNIFICANT WEATHER AND/OR OBSTRUCTIONS TO VISIBILITY

IDZ012-014-191200-
SOUTHWEST IDAHO


CITY           SKY/WX    TMP DP  RH WIND       PRES   REMARKS
BOISE          MOCLDY    45  23  42 SE10      29.95S
CALDWELL       MOCLDY    37  25  60 E3        29.98R
MOUNTAIN HOME  CLOUDY    42  28  57 E7        29.97S
$$

IDZ016-017-191200-
SOUTHCENTRAL IDAHO


CITY           SKY/WX    TMP DP  RH WIND       PRES   REMARKS
BURLEY         PTCLDY    34  27  75 CALM      30.00R
JEROME         PTCLDY    39  23  52 E6        29.99S WCI  35
TWIN FALLS     CLEAR     38  25  59 S10       29.99R WCI  31
$$

IDZ019>023-191200-
SOUTHEAST IDAHO


CITY           SKY/WX    TMP DP  RH WIND       PRES   REMARKS
IDAHO FALLS    PTCLDY    39  24  55 S7        30.01S WCI  34
POCATELLO      CLEAR     31  22  69 CALM      30.02R
REXBURG        PTCLDY    40  18  41 S9        30.00S WCI  34
$$

IDZ006-010-011-018-031-032-191200-
CENTRAL IDAHO MOUNTAINS


CITY           SKY/WX    TMP DP  RH WIND       PRES   REMARKS
MCCALL         CLEAR     26  19  74 CALM      29.98S
HAILEY         PTCLDY    36  19  51 N7        30.03R WCI  30
STANLEY          N/A     21  16  81 CALM      30.06R
SALMON         PTCLDY    27  18  69 CALM      30.04R
CHALLIS        PTCLDY    31  32 100 CALM      30.03R
$$

IDZ002-004-006-007-026-191200-
NORTHERN IDAHO


CITY           SKY/WX    TMP DP  RH WIND       PRES   REMARKS
LEWISTON       CLEAR     36  28  73 E7        29.96F WCI  30
LOWELL           N/A     33  31  92 NW5       30.07S WCI  29
COEUR D`ALENE  CLEAR     30  27  86 E7        29.98R WCI  23
MULLAN PASS    CLEAR     24  20  84 S8        29.92S WCI  15
$$




000
ASUS45 KBOI 191010
RWRID
WEATHER ROUNDUP FOR IDAHO
NATIONAL WEATHER SERVICE BOISE ID
400 AM MDT SAT APR 19 2014

NOTE: "FAIR" INDICATES FEW OR NO CLOUDS BELOW 12000 FEET
WITH NO SIGNIFICANT WEATHER AND/OR OBSTRUCTIONS TO VISIBILITY

IDZ012-014-191100-
SOUTHWEST IDAHO


CITY           SKY/WX    TMP DP  RH WIND       PRES   REMARKS
BOISE          FAIR      46  23  40 SE7       29.95F
CALDWELL       FAIR      37  25  60 NE5       29.97S WCI  34
MOUNTAIN HOME  CLOUDY    43  26  51 E5        29.97S
$$

IDZ016-017-191100-
SOUTHCENTRAL IDAHO


CITY           SKY/WX    TMP DP  RH WIND       PRES   REMARKS
BURLEY         FAIR      34  28  79 SW6       29.99S WCI  29
JEROME         FAIR      43  24  47 SE3       29.99F
TWIN FALLS     FAIR      39  24  55 S9        29.98F WCI  33
$$

IDZ019>023-191100-
SOUTHEAST IDAHO


CITY           SKY/WX    TMP DP  RH WIND       PRES   REMARKS
IDAHO FALLS    CLEAR     36  22  56 S3        30.01S
POCATELLO      CLEAR     33  22  63 SE6       30.01S WCI  28
REXBURG        PTCLDY    39  18  42 S7        30.00S WCI  34
$$

IDZ006-010-011-018-031-032-191100-
CENTRAL IDAHO MOUNTAINS


CITY           SKY/WX    TMP DP  RH WIND       PRES   REMARKS
MCCALL         FAIR      27  20  75 CALM      29.98S
HAILEY         FAIR      37  19  48 NW15      30.02S WCI  28
STANLEY          N/A     22  16  78 SW3       30.04F
SALMON         FAIR      28  18  64 CALM      30.03S
CHALLIS        FAIR      33  32  96 CALM      30.02S
$$

IDZ002-004-006-007-026-191100-
NORTHERN IDAHO


CITY           SKY/WX    TMP DP  RH WIND       PRES   REMARKS
LEWISTON       FAIR      39  27  62 SE5       29.97F
LOWELL           N/A     34  31  88 NW3       30.07S
COEUR D`ALENE  FAIR      32  27  80 E7        29.98S WCI  26
MULLAN PASS    FAIR      24  20  84 S8        29.92F WCI  15
$$




000
ASUS45 KBOI 190910
RWRID
WEATHER ROUNDUP FOR IDAHO
NATIONAL WEATHER SERVICE BOISE ID
300 AM MDT SAT APR 19 2014

NOTE: "FAIR" INDICATES FEW OR NO CLOUDS BELOW 12000 FEET
WITH NO SIGNIFICANT WEATHER AND/OR OBSTRUCTIONS TO VISIBILITY

IDZ012-014-191000-
SOUTHWEST IDAHO


CITY           SKY/WX    TMP DP  RH WIND       PRES   REMARKS
BOISE          MOCLDY    46  25  43 SE8       29.96F
CALDWELL       MOCLDY    39  25  56 E3        29.98F
MOUNTAIN HOME  CLOUDY    43  23  45 SE3       29.97F
$$

IDZ016-017-191000-
SOUTHCENTRAL IDAHO


CITY           SKY/WX    TMP DP  RH WIND       PRES   REMARKS
BURLEY         CLEAR     35  29  78 SW3       29.99F
JEROME         CLEAR     40  26  57 SE6       30.00F
TWIN FALLS     CLEAR     41  25  53 S12       29.99F
$$

IDZ019>023-191000-
SOUTHEAST IDAHO


CITY           SKY/WX    TMP DP  RH WIND       PRES   REMARKS
IDAHO FALLS    MOCLDY    36  22  56 SW9       30.01S WCI  29
POCATELLO      CLEAR     33  25  72 N3        30.01F
REXBURG        PTCLDY    42  17  36 S10       30.00S
$$

IDZ006-010-011-018-031-032-191000-
CENTRAL IDAHO MOUNTAINS


CITY           SKY/WX    TMP DP  RH WIND       PRES   REMARKS
MCCALL         MOCLDY    28  21  75 CALM      29.98F
HAILEY         PTCLDY    39  18  41 NW12      30.02S WCI  32
STANLEY          N/A     22  16  78 VRB3      30.05F
SALMON         PTCLDY    28  18  64 CALM      30.03S
CHALLIS        MOCLDY    32  32 100 CALM      30.02F
$$

IDZ002-004-006-007-026-191000-
NORTHERN IDAHO


CITY           SKY/WX    TMP DP  RH WIND       PRES   REMARKS
LEWISTON       CLEAR     39  26  59 S6        29.98F WCI  35
LOWELL           N/A     35  32  88 VRB3      30.07F
COEUR D`ALENE  CLEAR     32  27  80 E5        29.98S WCI  27
MULLAN PASS    CLEAR     25  20  81 S6        29.93F WCI  18
$$




000
ASUS45 KBOI 190810
RWRID
WEATHER ROUNDUP FOR IDAHO
NATIONAL WEATHER SERVICE BOISE ID
200 AM MDT SAT APR 19 2014

NOTE: "FAIR" INDICATES FEW OR NO CLOUDS BELOW 12000 FEET
WITH NO SIGNIFICANT WEATHER AND/OR OBSTRUCTIONS TO VISIBILITY

IDZ012-014-190900-
SOUTHWEST IDAHO


CITY           SKY/WX    TMP DP  RH WIND       PRES   REMARKS
BOISE          MOCLDY    45  27  49 SE7       29.97F
CALDWELL       MOCLDY    39  25  56 E5        29.99S
MOUNTAIN HOME  MOCLDY    40  21  46 S6        29.99R
$$

IDZ016-017-190900-
SOUTHCENTRAL IDAHO


CITY           SKY/WX    TMP DP  RH WIND       PRES   REMARKS
BURLEY         PTCLDY    37  30  75 SW7       30.00S WCI  32
JEROME         PTCLDY    40  26  57 SE6       30.01S
TWIN FALLS     PTCLDY    40  26  57 S13       30.00F WCI  32
$$

IDZ019>023-190900-
SOUTHEAST IDAHO


CITY           SKY/WX    TMP DP  RH WIND       PRES   REMARKS
IDAHO FALLS    PTCLDY    40  21  46 SW12      30.01R WCI  33
POCATELLO      PTCLDY    38  16  40 E5        30.02R WCI  34
REXBURG        MOCLDY    44  18  35 S9        30.00R
$$

IDZ006-010-011-018-031-032-190900-
CENTRAL IDAHO MOUNTAINS


CITY           SKY/WX    TMP DP  RH WIND       PRES   REMARKS
MCCALL         MOCLDY    28  20  71 CALM      29.99F
HAILEY         PTCLDY    41  18  38 N9        30.02S
STANLEY          N/A     23  16  74 CALM      30.06R
SALMON         CLEAR     32  18  55 CALM      30.03S
CHALLIS        PTCLDY    35  10  35 CALM      30.03R
$$

IDZ002-004-006-007-026-190900-
NORTHERN IDAHO


CITY           SKY/WX    TMP DP  RH WIND       PRES   REMARKS
LEWISTON       CLEAR     37  27  67 E5        29.99S WCI  33
LOWELL           N/A     36  33  89 NW3       30.08R
COEUR D`ALENE  CLEAR     36  28  75 S7        29.98F WCI  30
MULLAN PASS    CLEAR     25  21  85 S6        29.95S WCI  18
$$




    US Dept of Commerce
    National Oceanic and Atmospheric Administration
    National Weather Service
    1325 East West Highway
    Silver Spring, MD 20910
    Page Author: NWS Internet Services Team
Disclaimer
Information Quality
Credits
Glossary
Privacy Policy
Freedom of Information Act (FOIA)
About Us
Career Opportunities